Location: Quedlinburg
(51.7921°N, 11.1414°E)
Time: 12:48:08
(UTC+02:00)

RS-15 - Pass Details

Date: 11 March 2026
Orbit: 1893 x 2152 km, 64.8° (Epoch: 22 April)

Event Time Altitude Azimuth Distance (km) Brightness Sun altitude
Rises 23:03:55 0° 243° (WSW) 5,270 10.3 -38.7°
Reaches altitude 10° 23:07:13 10° 247° (WSW) 4,282 9.8 -39.0°
Maximum altitude 23:18:01 61° 327° (NNW) 2,144 8.2 -39.6°
Drops below altitude 10° 23:29:18 10° 47° (NE) 4,444 10.1 -40.2°
Sets 23:32:48 0° 52° (NE) 5,479 10.6 -40.4°
